SCP
0 0 0 0 0 0 0 0 0 0 0 0 0 0 0 0 -0 -0 -0 -0 -0 -0 -0 -0 0 0 0 0 0 0 0 0 0 0 0 0 0 0 0 0 0 0 0 0
0 0 0 0 0 0 0 0 0 0 0 0 0 0 0 -0 -0 -0 -0 -0 -0 0 0 0 0 0 0 0 0 0 0 0 0 0 0 0 0 0 0 0 0 0 0 0
0 0 0 0 0 0 0 0 0 0 0 0 0 0 0 -0 -0 -0 -0 0 0 0 0 0 0 0 0 0 0 0 0 0 0 0 0 0 0 0 0 0 0 0 0 0
0 0 0 0 0 0 0 0 0 0 0 0 0 0 -0 0 -0 0 0 0 0 0 0 0 0 0 0 0 0 0 0 0 0 0 0 0 0 0 -0 0 -0 -0 -0 -0
0 0 0 0 0 0 0 0 0 0 0 0 0 0 -0 0 0 0 0 0 0 0 0 0 0 0 0 0 0 0 0 0 -0 0 -0 0 0 0 0 0 0 0 0 -0
0 0 0 0 0 0 0 0 0 0 0 0 -0 -0 0 0 0 0 0 0 0 0 0 0 0 0 0 -0 0 0 0 0 -0 -0 0 -0 -0 0 -0 0 0 -0 -0 0
0 0 0 0 0 0 0 0 0 0 0 0 0 0 0 0 0 0 0 0 0 0 0 0 0 0 0 0 0 0 0 0 0 0 0 0 0 0 0 0 0 -0 -0 -0
0 0 0 0 0 0 0 0 0 0 0 0 0 0 0 0 0 0 0 0 0 -0 -0 0 0 0 0 0 0 0 0 0 0 0 0 0 0 0 0 0 0 0 0 0
0 0 0 0 0 0 0 0 0 0 0 0 0 0 0 0 0 0 0 0 0 0 0 0 0 0 0 0 0 0 0 0 0 0 0 0 0 0 0 0 0 0 0 0
0 0 0 0 0 0 0 0 0 0 0 0 0 0 0 0 0 0 0 0 0 0 0 0 0 0 0 0 0 0 0 0 0 0 0 0 0 0 0 0 0 0 -0 -0
0 0 0 0 0 0 0 0 0 0 0 0 0 0 0 0 0 0 0 0 0 0 0 0 0 0 0 0 0 0 0 0 0 0 0 0 0 0 0 -0 -0 -0 -0 0
0 0 0 0 0 0 0 0 0 0 0 0 -0 0 0 0 0 0 0 0 0 0 0 0 0 0 0 0 0 0 0 0 0 -0 -0 0 0 -0 -0 0 0 0 0 0
0 0 0 0 0 0 0 0 0 0 -0 -0 -0 0 0 0 0 0 0 0 0 0 0 0 0 0 0 0 0 0 -0 0 0 0 0 0 0 0 0 0 0 0 0 0
0 0 0 0 0 0 0 0 0 0 -0 0 0 0 0 0 0 0 0 0 0 0 -0 -0 0 0 0 0 0 0 0 0 0 0 0 0 0 0 0 0 0 0 0 0
0 0 0 0 0 0 0 0 -0 0 -0 0 0 0 0 0 0 0 0 0 0 -0 -0 -0 -0 0 0 0 0 0 0 0 0 0 0 0 0 0 0 0 0 0 0 0
0 0 0 0 0 0 0 -0 0 0 0 0 0 0 0 0 0 0 0 0 0 -0 -0 -0 0 0 0 0 0 0 0 0 0 0 0 0 0 0 0 0 -0 0 0 0
0 0 0 0 0 0 0 0 0 0 0 0 0 0 0 0 0 0 0 0 0 -0 -0 -0 0 0 0 0 0 0 0 0 0 0 0 0 0 0 -0 0 0 0 -0 0
0 0 0 0 -0 0 0 0 0 0 0 0 0 0 0 0 0 0 0 0 -0 -0 -0 -0 0 0 0 0 0 0 -0 -0 -0 -0 -0 -0 0 0 0 -0 -0 0 0 0
0 0 0 0 0 -0 0 0 0 0 0 0 0 0 0 0 0 0 0 0 -0 -0 -0 -0 0 0 0 0 0 0 -0 -0 -0 0 0 0 0 0 0 0 0 0 0 0
0 0 0 0 -0 0 0 0 0 0 0 0 0 0 0 0 0 0 0 -0 -0 -0 0 0 0 0 0 0 0 0 -0 0 0 0 0 0 0 0 0 0 0 0 0 0
0 -0 -0 0 -0 0 0 0 0 0 0 0 0 0 0 0 0 0 0 -0 -0 -0 0 0 0 0 0 0 0 0 0 0 0 0 0 0 0 0 0 0 0 0 0 0
0 -0 -0 0 0 0 0 0 0 0 0 0 0 0 0 0 0 0 0 -0 -0 0 0 0 0 0 0 0 0 0 0 0 0 0 0 0 0 0 0 0 0 0 0 0
0 0 -0 -0 0 0 0 0 0 0 0 0 0 0 0 0 0 0 -0 0 0 0 0 0 0 0 0 0 0 0 0 0 0 0 0 0 0 0 0 0 0 0 0 0
0 0 -0 -0 0 0 0 0 0 0 0 0 0 0 0 0 0 0 0 0 0 0 0 0 0 0 0 0 0 0 0 0 0 0 0 0 0 0 0 0 0 0 0 0
0 0 -0 -0 0 0 0 0 0 0 0 0 0 0 0 0 0 0 0 0 0 0 0 -0 -0 0 0 0 0 0 0 0 0 0 0 0 0 0 0 0 0 0 0 0
0 -0 -0 0 0 0 0 0 0 0 0 0 0 0 0 0 0 0 0 0 0 0 0 0 0 0 0 0 0 0 0 0 0 0 0 0 0 0 0 0 0 0 0 0
-0 -0 0 0 0 0 0 0 0 0 0 0 0 0 0 0 0 0 0 0 0 0 -0 -0 -0 0 0 0 0 0 0 0 0 0 0 0 0 0 0 0 0 0 0 0
Wind_Speed_500mb
3 5 9 7 15 20 8 2 9 7 11 2 7 17 34 40 39 46 59 65 62 61 66 69 72 75 72 67 68 69 64 58 57 57 54 48 50 44 41 42 52 45 41 43
8 9 12 5 15 11 15 10 19 20 11 5 8 18 30 26 39 50 61 62 68 67 78 80 75 70 81 76 68 59 61 57 53 54 44 35 36 34 34 32 30 35 34 43
7 10 10 9 14 12 9 14 7 5 3 3 7 27 41 26 46 59 53 58 60 71 73 77 74 68 67 64 59 57 52 47 39 36 33 31 28 32 20 22 31 39 46 53
5 8 4 9 11 18 24 13 12 9 1 7 18 43 34 25 55 51 53 61 69 68 72 67 64 60 57 55 52 47 44 35 28 29 24 23 29 36 32 28 32 36 41 41
6 3 6 5 10 6 7 1 4 4 8 14 42 39 6 45 45 44 59 62 61 61 57 56 54 53 54 52 51 44 34 29 22 18 18 19 20 19 18 20 23 23 23 20
6 6 9 7 6 15 3 4 4 7 5 20 28 19 17 56 47 53 54 53 55 52 49 46 47 49 48 47 43 31 20 21 11 13 13 14 14 15 21 18 19 22 20 14
7 6 11 10 3 12 6 9 8 5 11 14 14 18 45 42 52 49 50 50 45 45 45 42 43 45 44 43 41 33 27 21 15 13 12 12 11 12 14 13 12 12 16 25
6 3 10 14 8 10 7 5 3 9 14 19 25 30 30 43 45 46 46 44 43 44 43 41 40 38 40 39 37 35 33 28 28 31 27 23 15 15 18 17 23 23 33 43
13 10 7 10 9 16 11 8 5 10 16 22 24 27 32 35 38 39 36 37 39 40 41 39 38 37 37 36 32 30 31 28 27 25 23 22 25 32 33 34 44 50 47 46
8 5 21 23 21 14 5 5 6 12 15 13 20 26 24 32 34 32 32 33 36 37 40 40 38 34 31 29 26 25 27 30 31 32 34 36 35 34 39 40 44 41 70 80
6 10 20 14 13 11 4 5 11 11 12 17 19 17 23 26 25 28 29 30 31 34 37 37 36 36 33 30 31 37 39 39 39 42 46 49 49 49 59 84 75 65 53 43
8 19 13 11 18 9 5 14 14 13 16 10 11 17 18 17 21 27 26 26 27 30 32 34 39 44 48 48 47 49 55 56 59 67 73 77 77 71 59 54 53 51 49 48
16 16 9 12 14 2 10 12 13 12 7 7 12 12 12 15 20 22 23 23 25 30 36 52 61 68 72 72 69 67 65 61 60 64 67 68 69 70 67 61 57 53 52 49
14 13 15 13 6 2 10 12 7 3 2 6 11 9 9 14 17 20 24 23 25 37 49 63 60 58 56 54 53 54 54 57 66 69 68 68 67 65 62 60 57 53 48 44
16 8 6 9 6 3 8 7 5 4 3 5 8 9 9 10 17 20 20 21 30 47 49 48 48 45 42 46 54 62 66 65 64 64 60 56 55 56 53 50 51 50 41 38
16 7 9 5 9 4 11 10 11 8 6 6 8 7 6 11 15 17 19 22 33 51 47 46 42 38 35 33 32 41 39 39 37 36 36 41 41 41 42 44 41 38 36 34
24 18 20 20 10 13 8 10 8 6 2 4 6 6 5 9 15 17 19 24 42 52 49 41 37 34 33 35 27 20 23 28 25 29 37 38 40 39 40 35 32 31 29 23
7 3 5 10 18 17 12 3 4 4 2 4 2 4 8 9 13 14 18 27 48 52 44 36 31 31 31 28 32 34 33 35 35 46 47 43 39 34 29 28 27 27 28 27
5 2 10 21 16 12 13 7 4 0 3 5 3 5 10 12 15 16 18 32 57 46 43 35 30 28 28 29 28 28 29 31 30 29 28 27 22 25 22 24 25 26 25 25
4 8 12 14 10 8 3 3 9 5 3 3 4 10 15 13 18 19 23 40 61 48 41 30 22 25 30 26 22 22 26 28 29 30 32 30 21 19 19 22 24 26 26 28
12 16 11 11 12 9 11 10 15 14 2 2 7 12 14 18 22 25 28 48 57 42 32 24 22 23 29 32 32 30 25 22 21 20 18 18 19 20 20 21 23 24 26 26
13 5 6 12 22 26 20 15 17 14 7 2 11 17 21 25 25 27 36 55 49 34 23 23 24 27 26 24 23 20 17 16 17 15 15 15 15 17 16 14 16 17 16 16
11 9 4 15 20 25 26 26 20 14 11 7 17 24 29 28 31 40 55 50 37 28 25 29 31 28 24 19 16 14 14 15 13 12 13 12 11 10 9 9 8 10 11 11
11 6 10 15 5 17 31 31 26 18 13 20 28 36 35 32 37 56 51 41 35 31 31 31 28 21 15 11 9 10 11 11 10 11 9 8 9 6 5 7 9 9 9 8
5 2 11 4 16 25 27 23 20 20 29 41 44 36 31 32 53 53 42 36 31 27 19 17 20 17 17 15 16 16 15 13 12 11 9 8 11 13 11 8 7 7 5 4
9 7 20 19 18 20 21 24 29 39 49 40 36 29 32 54 60 50 38 34 25 21 18 17 19 18 17 17 16 15 13 10 7 5 5 6 6 4 3 5 5 6 1 6
19 15 12 26 32 36 33 29 36 42 38 34 30 34 61 63 58 43 35 29 26 23 24 19 14 12 14 15 12 10 11 8 6 8 10 10 5 2 4 7 5 1 6 6
Wind_Direction_500mb
237 326 2 344 358 331 39 124 131 135 100 111 0 351 352 347 347 349 343 342 342 338 336 333 329 325 323 319 315 316 314 309 306 303 298 304 294 295 279 273 269 276 273 273
326 12 17 340 347 357 94 78 102 117 104 53 5 327 335 352 351 344 342 341 338 334 330 329 328 325 320 320 320 319 313 307 299 295 306 305 306 308 283 273 273 277 276 277
267 337 1 3 338 73 88 28 104 104 70 296 269 341 337 343 353 344 338 332 331 328 331 328 326 326 326 324 324 322 318 315 308 309 307 298 304 283 324 300 276 295 297 299
239 19 104 230 39 98 108 94 95 114 79 26 337 328 331 350 347 339 335 331 333 333 331 335 335 334 332 330 328 327 327 321 312 320 310 312 296 311 311 307 304 303 300 298
123 179 270 228 14 5 109 147 148 92 12 343 341 336 177 343 348 336 334 334 333 335 340 343 345 343 341 341 336 329 328 331 323 317 323 326 323 315 313 312 309 303 305 320
69 124 233 215 325 339 57 286 64 89 357 357 345 343 322 337 339 337 335 339 343 346 352 354 358 355 355 351 355 353 347 339 11 10 0 341 345 347 324 310 289 307 324 356
141 205 285 214 192 336 70 241 155 20 352 349 333 294 313 328 333 335 341 348 353 0 4 4 4 7 8 15 17 25 32 35 27 14 15 355 360 5 10 354 31 55 72 81
113 153 286 180 76 135 189 143 297 318 329 324 319 324 322 332 335 342 349 359 5 12 15 13 15 19 18 24 35 47 55 59 50 35 50 58 65 54 61 73 94 83 95 95
165 213 192 153 164 159 179 213 264 310 317 320 324 327 335 336 341 349 358 5 14 18 20 17 20 25 30 33 40 46 50 55 49 46 59 62 72 85 85 87 96 99 97 88
74 101 139 144 143 147 134 18 330 319 329 334 330 332 338 340 347 0 8 13 18 21 25 26 27 34 39 42 44 49 47 56 66 70 77 79 82 81 85 91 94 105 97 95
79 87 128 156 162 157 149 322 332 351 358 338 333 339 343 342 358 8 13 18 24 27 31 35 40 45 46 49 61 73 74 74 78 82 83 84 82 85 93 97 95 95 95 90
218 173 201 194 183 178 308 332 354 5 342 344 337 346 340 1 10 14 16 24 32 39 44 51 62 67 67 67 74 80 82 84 89 92 93 94 93 95 91 85 82 81 79 75
176 187 197 160 167 250 343 352 2 343 340 353 349 350 351 24 22 27 37 40 50 61 81 88 85 84 82 78 76 77 78 79 82 84 85 86 87 88 91 90 87 84 87 87
180 190 136 170 205 287 356 354 8 51 20 10 353 0 39 39 38 47 47 59 76 97 97 97 92 88 83 79 75 74 79 89 93 92 90 89 89 89 89 87 85 86 88 86
168 197 172 157 158 38 8 58 86 105 65 47 21 23 42 56 54 63 69 78 94 116 115 104 96 86 75 73 82 88 91 92 92 91 90 90 92 96 96 91 91 92 94 96
167 147 130 149 156 108 100 92 105 94 78 37 25 33 57 74 73 84 82 94 105 125 119 110 100 90 81 80 93 96 83 83 82 85 89 89 91 96 99 102 98 95 95 94
159 147 152 164 175 157 144 124 109 111 59 344 4 40 106 97 95 102 102 105 118 129 122 115 110 98 83 91 99 112 102 99 94 94 98 95 94 94 99 98 94 92 85 79
242 220 161 166 157 148 162 142 119 105 272 313 26 89 134 128 127 120 112 122 132 135 136 131 118 94 86 99 98 100 96 96 99 100 104 110 105 99 90 83 82 83 83 76
343 11 145 149 136 151 150 161 206 154 2 206 317 146 136 134 146 134 126 132 142 147 142 129 104 86 98 107 117 111 110 108 103 104 106 108 115 110 91 75 79 82 83 80
105 155 154 169 170 152 163 300 248 236 351 192 192 169 152 144 155 145 142 146 154 154 138 121 105 97 105 112 122 120 112 111 110 113 117 117 106 97 87 83 85 83 82 81
129 146 165 205 228 242 236 256 223 225 201 200 185 173 159 155 151 152 158 158 160 149 138 118 98 101 110 108 109 109 110 114 116 120 118 113 106 101 95 88 84 87 87 81
143 180 225 230 227 232 243 230 210 213 221 255 182 169 162 154 151 156 155 157 152 145 129 107 109 122 121 120 123 124 129 128 125 125 120 115 113 115 108 95 87 83 79 70
170 218 292 315 269 249 211 194 201 212 226 235 179 162 156 152 151 154 156 153 146 134 118 112 115 114 118 127 125 123 130 132 128 125 124 122 123 118 109 108 102 103 101 83
191 238 325 2 133 152 167 176 191 210 214 169 157 152 149 150 157 158 151 147 136 129 123 127 129 127 131 127 116 113 115 122 123 129 130 115 112 100 100 110 123 117 106 86
114 342 0 138 171 165 170 182 196 186 163 151 147 146 146 150 154 150 149 142 137 137 136 152 160 156 145 132 117 106 114 118 121 116 104 105 125 122 120 122 96 68 52 68
131 121 47 90 133 146 166 161 150 150 150 148 148 149 152 150 149 152 149 131 114 110 124 133 147 148 146 148 137 127 126 119 119 118 102 100 118 119 81 42 16 343 278 130
134 137 114 103 96 101 109 134 146 150 151 146 142 151 148 147 154 144 135 128 127 128 131 130 132 140 143 143 133 120 111 90 82 97 113 124 122 50 358 343 350 352 153 132
Wind_Speed_850mb
3 5 9 7 15 20 8 2 9 7 11 2 7 17 34 40 39 46 59 65 62 61 66 69 72 75 72 67 68 69 64 58 57 57 54 48 50 44 41 42 52 45 41 43
8 9 12 5 15 11 15 10 19 20 11 5 8 18 30 26 39 50 61 62 68 67 78 80 75 70 81 76 68 59 61 57 53 54 44 35 36 34 34 32 30 35 34 43
7 10 10 9 14 12 9 14 7 5 3 3 7 27 41 26 46 59 53 58 60 71 73 77 74 68 67 64 59 57 52 47 39 36 33 31 28 32 20 22 31 39 46 53
5 8 4 9 11 18 24 13 12 9 1 7 18 43 34 25 55 51 53 61 69 68 72 67 64 60 57 55 52 47 44 35 28 29 24 23 29 36 32 28 32 36 41 41
6 3 6 5 10 6 7 1 4 4 8 14 42 39 6 45 45 44 59 62 61 61 57 56 54 53 54 52 51 44 34 29 22 18 18 19 20 19 18 20 23 23 23 20
6 6 9 7 6 15 3 4 4 7 5 20 28 19 17 56 47 53 54 53 55 52 49 46 47 49 48 47 43 31 20 21 11 13 13 14 14 15 21 18 19 22 20 14
7 6 11 10 3 12 6 9 8 5 11 14 14 18 45 42 52 49 50 50 45 45 45 42 43 45 44 43 41 33 27 21 15 13 12 12 11 12 14 13 12 12 16 25
6 3 10 14 8 10 7 5 3 9 14 19 25 30 30 43 45 46 46 44 43 44 43 41 40 38 40 39 37 35 33 28 28 31 27 23 15 15 18 17 23 23 33 43
13 10 7 10 9 16 11 8 5 10 16 22 24 27 32 35 38 39 36 37 39 40 41 39 38 37 37 36 32 30 31 28 27 25 23 22 25 32 33 34 44 50 47 46
8 5 21 23 21 14 5 5 6 12 15 13 20 26 24 32 34 32 32 33 36 37 40 40 38 34 31 29 26 25 27 30 31 32 34 36 35 34 39 40 44 41 70 80
6 10 20 14 13 11 4 5 11 11 12 17 19 17 23 26 25 28 29 30 31 34 37 37 36 36 33 30 31 37 39 39 39 42 46 49 49 49 59 84 75 65 53 43
8 19 13 11 18 9 5 14 14 13 16 10 11 17 18 17 21 27 26 26 27 30 32 34 39 44 48 48 47 49 55 56 59 67 73 77 77 71 59 54 53 51 49 48
16 16 9 12 14 2 10 12 13 12 7 7 12 12 12 15 20 22 23 23 25 30 36 52 61 68 72 72 69 67 65 61 60 64 67 68 69 70 67 61 57 53 52 49
14 13 15 13 6 2 10 12 7 3 2 6 11 9 9 14 17 20 24 23 25 37 49 63 60 58 56 54 53 54 54 57 66 69 68 68 67 65 62 60 57 53 48 44
16 8 6 9 6 3 8 7 5 4 3 5 8 9 9 10 17 20 20 21 30 47 49 48 48 45 42 46 54 62 66 65 64 64 60 56 55 56 53 50 51 50 41 38
16 7 9 5 9 4 11 10 11 8 6 6 8 7 6 11 15 17 19 22 33 51 47 46 42 38 35 33 32 41 39 39 37 36 36 41 41 41 42 44 41 38 36 34
24 18 20 20 10 13 8 10 8 6 2 4 6 6 5 9 15 17 19 24 42 52 49 41 37 34 33 35 27 20 23 28 25 29 37 38 40 39 40 35 32 31 29 23
7 3 5 10 18 17 12 3 4 4 2 4 2 4 8 9 13 14 18 27 48 52 44 36 31 31 31 28 32 34 33 35 35 46 47 43 39 34 29 28 27 27 28 27
5 2 10 21 16 12 13 7 4 0 3 5 3 5 10 12 15 16 18 32 57 46 43 35 30 28 28 29 28 28 29 31 30 29 28 27 22 25 22 24 25 26 25 25
4 8 12 14 10 8 3 3 9 5 3 3 4 10 15 13 18 19 23 40 61 48 41 30 22 25 30 26 22 22 26 28 29 30 32 30 21 19 19 22 24 26 26 28
12 16 11 11 12 9 11 10 15 14 2 2 7 12 14 18 22 25 28 48 57 42 32 24 22 23 29 32 32 30 25 22 21 20 18 18 19 20 20 21 23 24 26 26
13 5 6 12 22 26 20 15 17 14 7 2 11 17 21 25 25 27 36 55 49 34 23 23 24 27 26 24 23 20 17 16 17 15 15 15 15 17 16 14 16 17 16 16
11 9 4 15 20 25 26 26 20 14 11 7 17 24 29 28 31 40 55 50 37 28 25 29 31 28 24 19 16 14 14 15 13 12 13 12 11 10 9 9 8 10 11 11
11 6 10 15 5 17 31 31 26 18 13 20 28 36 35 32 37 56 51 41 35 31 31 31 28 21 15 11 9 10 11 11 10 11 9 8 9 6 5 7 9 9 9 8
5 2 11 4 16 25 27 23 20 20 29 41 44 36 31 32 53 53 42 36 31 27 19 17 20 17 17 15 16 16 15 13 12 11 9 8 11 13 11 8 7 7 5 4
9 7 20 19 18 20 21 24 29 39 49 40 36 29 32 54 60 50 38 34 25 21 18 17 19 18 17 17 16 15 13 10 7 5 5 6 6 4 3 5 5 6 1 6
19 15 12 26 32 36 33 29 36 42 38 34 30 34 61 63 58 43 35 29 26 23 24 19 14 12 14 15 12 10 11 8 6 8 10 10 5 2 4 7 5 1 6 6
Wind_Direction_850mb
237 326 2 344 358 331 39 124 131 135 100 111 0 351 352 347 347 349 343 342 342 338 336 333 329 325 323 319 315 316 314 309 306 303 298 304 294 295 279 273 269 276 273 273
326 12 17 340 347 357 94 78 102 117 104 53 5 327 335 352 351 344 342 341 338 334 330 329 328 325 320 320 320 319 313 307 299 295 306 305 306 308 283 273 273 277 276 277
267 337 1 3 338 73 88 28 104 104 70 296 269 341 337 343 353 344 338 332 331 328 331 328 326 326 326 324 324 322 318 315 308 309 307 298 304 283 324 300 276 295 297 299
239 19 104 230 39 98 108 94 95 114 79 26 337 328 331 350 347 339 335 331 333 333 331 335 335 334 332 330 328 327 327 321 312 320 310 312 296 311 311 307 304 303 300 298
123 179 270 228 14 5 109 147 148 92 12 343 341 336 177 343 348 336 334 334 333 335 340 343 345 343 341 341 336 329 328 331 323 317 323 326 323 315 313 312 309 303 305 320
69 124 233 215 325 339 57 286 64 89 357 357 345 343 322 337 339 337 335 339 343 346 352 354 358 355 355 351 355 353 347 339 11 10 0 341 345 347 324 310 289 307 324 356
141 205 285 214 192 336 70 241 155 20 352 349 333 294 313 328 333 335 341 348 353 0 4 4 4 7 8 15 17 25 32 35 27 14 15 355 360 5 10 354 31 55 72 81
113 153 286 180 76 135 189 143 297 318 329 324 319 324 322 332 335 342 349 359 5 12 15 13 15 19 18 24 35 47 55 59 50 35 50 58 65 54 61 73 94 83 95 95
165 213 192 153 164 159 179 213 264 310 317 320 324 327 335 336 341 349 358 5 14 18 20 17 20 25 30 33 40 46 50 55 49 46 59 62 72 85 85 87 96 99 97 88
74 101 139 144 143 147 134 18 330 319 329 334 330 332 338 340 347 0 8 13 18 21 25 26 27 34 39 42 44 49 47 56 66 70 77 79 82 81 85 91 94 105 97 95
79 87 128 156 162 157 149 322 332 351 358 338 333 339 343 342 358 8 13 18 24 27 31 35 40 45 46 49 61 73 74 74 78 82 83 84 82 85 93 97 95 95 95 90
218 173 201 194 183 178 308 332 354 5 342 344 337 346 340 1 10 14 16 24 32 39 44 51 62 67 67 67 74 80 82 84 89 92 93 94 93 95 91 85 82 81 79 75
176 187 197 160 167 250 343 352 2 343 340 353 349 350 351 24 22 27 37 40 50 61 81 88 85 84 82 78 76 77 78 79 82 84 85 86 87 88 91 90 87 84 87 87
180 190 136 170 205 287 356 354 8 51 20 10 353 0 39 39 38 47 47 59 76 97 97 97 92 88 83 79 75 74 79 89 93 92 90 89 89 89 89 87 85 86 88 86
168 197 172 157 158 38 8 58 86 105 65 47 21 23 42 56 54 63 69 78 94 116 115 104 96 86 75 73 82 88 91 92 92 91 90 90 92 96 96 91 91 92 94 96
167 147 130 149 156 108 100 92 105 94 78 37 25 33 57 74 73 84 82 94 105 125 119 110 100 90 81 80 93 96 83 83 82 85 89 89 91 96 99 102 98 95 95 94
159 147 152 164 175 157 144 124 109 111 59 344 4 40 106 97 95 102 102 105 118 129 122 115 110 98 83 91 99 112 102 99 94 94 98 95 94 94 99 98 94 92 85 79
242 220 161 166 157 148 162 142 119 105 272 313 26 89 134 128 127 120 112 122 132 135 136 131 118 94 86 99 98 100 96 96 99 100 104 110 105 99 90 83 82 83 83 76
343 11 145 149 136 151 150 161 206 154 2 206 317 146 136 134 146 134 126 132 142 147 142 129 104 86 98 107 117 111 110 108 103 104 106 108 115 110 91 75 79 82 83 80
105 155 154 169 170 152 163 300 248 236 351 192 192 169 152 144 155 145 142 146 154 154 138 121 105 97 105 112 122 120 112 111 110 113 117 117 106 97 87 83 85 83 82 81
129 146 165 205 228 242 236 256 223 225 201 200 185 173 159 155 151 152 158 158 160 149 138 118 98 101 110 108 109 109 110 114 116 120 118 113 106 101 95 88 84 87 87 81
143 180 225 230 227 232 243 230 210 213 221 255 182 169 162 154 151 156 155 157 152 145 129 107 109 122 121 120 123 124 129 128 125 125 120 115 113 115 108 95 87 83 79 70
170 218 292 315 269 249 211 194 201 212 226 235 179 162 156 152 151 154 156 153 146 134 118 112 115 114 118 127 125 123 130 132 128 125 124 122 123 118 109 108 102 103 101 83
191 238 325 2 133 152 167 176 191 210 214 169 157 152 149 150 157 158 151 147 136 129 123 127 129 127 131 127 116 113 115 122 123 129 130 115 112 100 100 110 123 117 106 86
114 342 0 138 171 165 170 182 196 186 163 151 147 146 146 150 154 150 149 142 137 137 136 152 160 156 145 132 117 106 114 118 121 116 104 105 125 122 120 122 96 68 52 68
131 121 47 90 133 146 166 161 150 150 150 148 148 149 152 150 149 152 149 131 114 110 124 133 147 148 146 148 137 127 126 119 119 118 102 100 118 119 81 42 16 343 278 130
134 137 114 103 96 101 109 134 146 150 151 146 142 151 148 147 154 144 135 128 127 128 131 130 132 140 143 143 133 120 111 90 82 97 113 124 122 50 358 343 350 352 153 132